CW0069 Weather Reports


time (UTC)temp
C
wind
direction
speed
KPH
gust
KPH
rain 1hr
cm
rain 24hr
cm
rain mn
cm
humidity
%
barometer
mb
20260509090404 21 122 9.7 20.9 0.00 0.00 0.00 66 1005.6
20260509084904 21 132 9.7 19.3 0.00 0.00 0.00 66 1006.1
20260509084404 21 137 8.0 19.3 0.00 0.00 0.00 66 1006.5
20260509083905 21 138 8.0 14.5 0.00 0.00 0.00 65 1006.9
20260509083405 21 120 6.4 11.3 0.00 0.00 0.00 65 1007.0
20260509082904 21 119 4.8 9.7 0.00 0.00 0.00 65 1007.2
20260509081904 21 144 6.4 12.9 0.00 0.00 0.00 65 1007.8
20260509081404 21 122 3.2 4.8 0.00 0.00 0.00 65 1007.9
20260509075905 21 159 4.8 8.0 0.00 0.00 0.00 64 1008.4
20260509074905 21 143 0.0 3.2 0.00 0.00 0.00 64 1008.5
20260509074405 20 143 1.6 3.2 0.00 0.00 0.00 64 1008.6
20260509073904 20 143 1.6 4.8 0.00 0.00 0.00 64 1008.7
20260509073404 20 140 1.6 4.8 0.00 0.00 0.00 64 1008.8
20260509072904 20 140 1.6 4.8 0.00 0.00 0.00 63 1009.0
20260509072405 20 140 1.6 3.2 0.00 0.00 0.00 63 1009.0
20260509071904 20 140 0.0 3.2 0.00 0.00 0.00 63 1008.9
20260509071404 21 140 1.6 3.2 0.00 0.00 0.00 63 1008.8
20260509070904 21 140 0.0 4.8 0.00 0.00 0.00 62 1008.5
20260509070404 21 140 3.2 4.8 0.00 0.00 0.00 62 1008.1
20260509064904 21 150 3.2 4.8 0.00 0.00 0.00 62 1008.1
20260509064404 21 147 1.6 4.8 0.00 0.00 0.00 61 1008.2
20260509063404 21 148 3.2 8.0 0.00 0.00 0.00 61 1008.0
20260509062904 21 161 6.4 8.0 0.00 0.00 0.00 61 1008.1
20260509062404 21 162 0.0 0.0 0.00 0.00 0.00 61 1008.5
20260509061404 21 162 1.6 4.8 0.00 0.00 0.00 61 1008.7
20260509060404 21 161 3.2 8.0 0.00 0.00 0.00 62 1008.8
20260509055905 21 152 6.4 9.7 0.00 0.00 0.00 62 1008.4
20260509055404 21 164 6.4 8.0 0.00 0.00 0.00 62 1008.6
20260509054904 21 15 0.0 3.2 0.00 0.00 0.00 61 1009.1
20260509054404 21 15 0.0 3.2 0.00 0.00 0.00 61 1009.1
20260509053904 21 15 1.6 4.8 0.00 0.00 0.00 61 1009.4
20260509053404 21 14 3.2 4.8 0.00 0.00 0.00 61 1009.4
20260509052904 21 358 4.8 4.8 0.00 0.00 0.00 61 1009.3
20260509052404 21 154 1.6 3.2 0.00 0.00 0.00 61 1008.7
20260509051904 21 150 4.8 11.3 0.00 0.00 0.00 61 1008.3
20260509050904 21 165 1.6 9.7 0.00 0.00 0.00 61 1008.5
20260509050405 21 152 6.4 14.5 0.00 0.00 0.00 61 1008.1
20260509045904 21 159 8.0 11.3 0.00 0.00 0.00 61 1008.0
20260509045404 21 178 4.8 12.9 0.00 0.00 0.00 60 1008.0
20260509044904 22 160 6.4 12.9 0.00 0.00 0.00 60 1007.7
20260509044404 22 146 8.0 12.9 0.00 0.00 0.00 60 1007.6
20260509043904 22 131 8.0 11.3 0.00 0.00 0.00 60 1007.9
20260509043404 22 117 3.2 4.8 0.00 0.00 0.00 60 1008.3
20260509042905 22 128 3.2 4.8 0.00 0.00 0.00 60 1008.3
20260509042404 22 127 1.6 4.8 0.00 0.00 0.00 60 1008.6
20260509041904 22 127 0.0 0.0 0.00 0.00 0.00 60 1008.9
20260509041404 22 127 0.0 0.0 0.00 0.00 0.00 60 1008.9
20260509040905 22 127 0.0 0.0 0.00 0.00 0.00 59 1009.0
20260509040404 22 127 0.0 0.0 0.00 0.00 0.00 60 1008.9
20260509034904 22 127 1.6 4.8 0.00 0.00 0.00 60 1008.7
20260509033904 22 126 1.6 4.8 0.00 0.00 0.00 59 1008.4
20260509033404 22 126 1.6 4.8 0.00 0.00 0.00 59 1008.3
20260509032904 22 126 1.6 3.2 0.00 0.00 0.00 59 1008.3
20260509031904 22 126 3.2 4.8 0.00 0.00 0.00 58 1008.2
20260509031404 22 125 3.2 8.0 0.00 0.00 0.00 58 1008.2
20260509030904 22 143 3.2 8.0 0.00 0.00 0.00 58 1008.1
20260509025904 22 130 3.2 4.8 0.00 0.00 0.00 58 1007.9
20260509025404 22 130 1.6 4.8 0.00 0.00 0.00 58 1007.9
20260509024904 22 130 1.6 4.8 0.00 0.00 0.00 58 1007.9
20260509024404 22 130 3.2 4.8 0.00 0.00 0.00 58 1007.8
20260509023905 22 130 1.6 4.8 0.00 0.00 0.00 58 1007.6
20260509023404 22 130 1.6 4.8 0.00 0.00 0.00 58 1007.5
20260509022404 22 139 4.8 8.0 0.00 0.00 0.00 58 1007.4
20260509021904 22 130 3.2 8.0 0.00 0.00 0.00 58 1007.3
20260509021404 22 130 3.2 4.8 0.00 0.00 0.00 58 1007.3
20260509020904 22 130 4.8 11.3 0.00 0.00 0.00 58 1007.5
20260509020404 22 144 4.8 8.0 0.00 0.00 0.00 57 1007.4
20260509015405 22 144 3.2 8.0 0.00 0.00 0.00 57 1007.4
20260509014904 22 144 4.8 4.8 0.00 0.00 0.00 57 1007.4
20260509014404 22 146 3.2 8.0 0.00 0.00 0.00 57 1007.3
20260509013904 22 146 3.2 4.8 0.00 0.00 0.00 57 1007.3
20260509012904 22 144 3.2 4.8 0.00 0.00 0.00 57 1007.2
20260509012404 22 144 3.2 4.8 0.00 0.00 0.00 56 1007.1
20260509011906 22 144 0.0 0.0 0.00 0.00 0.00 56 1007.1
20260509010905 22 144 1.6 4.8 0.00 0.00 0.00 55 1006.8
20260509004405 23 142 4.8 9.7 0.00 0.00 0.00 56 1006.5
20260509003904 23 153 4.8 11.3 0.00 0.00 0.00 55 1006.5
20260509003405 23 150 8.0 12.9 0.00 0.00 0.00 55 1006.5
20260509002404 23 143 6.4 14.5 0.00 0.00 0.00 55 1006.5
20260509001904 23 151 6.4 14.5 0.00 0.00 0.00 55 1006.6
20260509000904 23 144 3.2 8.0 0.00 0.00 0.00 54 1006.8
20260508235904 23 152 4.8 8.0 0.00 0.00 0.00 54 1006.9
20260508235404 23 145 4.8 9.7 0.00 0.00 0.00 54 1007.0
20260508234904 23 124 1.6 4.8 0.00 0.00 0.00 54 1007.1
20260508234404 23 124 8.0 16.1 0.00 0.00 0.00 54 1007.0
20260508233904 23 121 3.2 4.8 0.00 0.00 0.00 54 1007.1
20260508232904 23 82 3.2 9.7 0.00 0.00 0.00 53 1007.1
20260508232404 23 119 3.2 4.8 0.00 0.00 0.00 53 1007.0
20260508231905 23 136 4.8 8.0 0.00 0.00 0.00 53 1007.0
20260508231404 23 133 3.2 4.8 0.00 0.00 0.00 53 1007.1
20260508230904 23 133 4.8 8.0 0.00 0.00 0.00 53 1007.2
20260508225904 23 169 4.8 11.3 0.00 0.00 0.00 52 1007.2
20260508225404 23 142 4.8 9.7 0.00 0.00 0.00 52 1007.3
20260508224905 23 173 9.7 14.5 0.00 0.00 0.00 52 1007.2
20260508223904 23 148 9.7 16.1 0.00 0.00 0.00 51 1007.3
20260508223404 23 155 11.3 19.3 0.00 0.00 0.00 51 1007.2
20260508222904 23 172 12.9 19.3 0.00 0.00 0.00 51 1007.3
20260508222404 23 149 11.3 20.9 0.00 0.00 0.00 52 1007.3
20260508221904 23 160 14.5 19.3 0.00 0.00 0.00 53 1007.2
20260508221404 23 166 9.7 19.3 0.00 0.00 0.00 53 1007.2
20260508220904 23 180 8.0 16.1 0.00 0.00 0.00 53 1007.2
20260508220404 23 165 8.0 12.9 0.00 0.00 0.00 54 1007.1
20260508215904 23 165 9.7 12.9 0.00 0.00 0.00 54 1007.1
20260508215405 23 171 8.0 14.5 0.00 0.00 0.00 54 1007.0
20260508214904 23 126 6.4 14.5 0.00 0.00 0.00 55 1006.9
20260508214404 23 139 6.4 11.3 0.00 0.00 0.00 55 1007.0
20260508213904 23 163 3.2 8.0 0.00 0.00 0.00 56 1006.9
20260508213404 23 164 3.2 14.5 0.00 0.00 0.00 56 1006.9
20260508212904 22 190 3.2 14.5 0.00 0.00 0.00 55 1006.9
20260508212404 23 8 6.4 16.1 0.00 0.00 0.00 54 1006.6
20260508211904 23 124 11.3 20.9 0.00 0.00 0.00 53 1006.5
20260508211404 23 144 9.7 19.3 0.00 0.00 0.00 53 1007.6
20260508210904 23 187 8.0 16.1 0.00 0.00 0.00 52 1008.7
20260508210403 23 205 6.4 12.9 0.00 0.00 0.00 51 1008.3
20260508205904 23 175 9.7 16.1 0.00 0.00 0.00 50 1008.3
20260508205404 24 177 11.3 16.1 0.00 0.00 0.00 50 1008.8
20260508204904 24 179 11.3 19.3 0.00 0.00 0.00 49 1008.9
20260508204404 25 190 8.0 19.3 0.00 0.00 0.00 49 1009.0
20260508203904 25 188 8.0 19.3 0.00 0.00 0.00 49 1009.0
20260508203404 25 214 6.4 12.9 0.00 0.00 0.00 48 1009.0
20260508202904 25 191 4.8 11.3 0.00 0.00 0.00 48 1008.8
20260508201904 25 175 9.7 19.3 0.00 0.00 0.00 49 1008.7
20260508201404 25 169 8.0 12.9 0.00 0.00 0.00 48 1008.8
20260508200905 25 131 4.8 12.9 0.00 0.00 0.00 48 1008.8
20260508200404 25 109 9.7 16.1 0.00 0.00 0.00 48 1008.7
20260508195904 25 138 6.4 14.5 0.00 0.00 0.00 47 1008.7
20260508195404 25 167 9.7 14.5 0.00 0.00 0.00 48 1008.8
20260508194904 25 144 8.0 16.1 0.00 0.00 0.00 47 1008.9
20260508193905 25 138 11.3 16.1 0.00 0.00 0.00 47 1009.0
20260508193405 25 157 6.4 12.9 0.00 0.00 0.00 47 1008.9
20260508191904 26 163 8.0 19.3 0.00 0.00 0.00 47 1009.2
20260508191404 26 146 9.7 19.3 0.00 0.00 0.00 48 1009.3
20260508190904 26 154 6.4 19.3 0.00 0.00 0.00 47 1009.4
20260508190404 26 129 12.9 19.3 0.00 0.00 0.00 46 1009.4
20260508185904 26 168 12.9 19.3 0.00 0.00 0.00 47 1009.4
20260508184905 26 148 11.3 19.3 0.00 0.00 0.00 46 1009.5
20260508184405 26 159 11.3 19.3 0.00 0.00 0.00 45 1009.5
20260508183904 26 153 9.7 16.1 0.00 0.00 0.00 46 1009.5
20260508183404 26 172 9.7 19.3 0.00 0.00 0.00 48 1009.6
20260508182905 25 165 8.0 19.3 0.00 0.00 0.00 47 1009.6
20260508182404 25 171 8.0 16.1 0.00 0.00 0.00 47 1009.7
20260508181904 25 172 8.0 12.9 0.00 0.00 0.00 48 1009.8
20260508181404 25 133 9.7 19.3 0.00 0.00 0.00 49 1009.9
20260508180913 25 163 9.7 16.1 0.00 0.00 0.00 48 1010.0
20260508180405 24 94 1.6 9.7 0.00 0.00 0.00 48 1010.1
20260508175905 25 128 4.8 12.9 0.00 0.00 0.00 49 1010.2
20260508175404 24 107 9.7 16.1 0.00 0.00 0.00 48 1010.3
20260508174404 24 97 6.4 16.1 0.00 0.00 0.00 48 1010.5
20260508173905 24 149 6.4 12.9 0.00 0.00 0.00 48 1010.6
20260508173404 23 160 8.0 16.1 0.00 0.00 0.00 49 1010.7
20260508172904 23 147 8.0 14.5 0.00 0.00 0.00 47 1010.6
20260508172404 23 171 4.8 14.5 0.00 0.00 0.00 47 1010.8
20260508171904 23 93 4.8 14.5 0.00 0.00 0.00 48 1010.8
20260508171404 23 103 8.0 19.3 0.00 0.00 0.00 49 1010.9
20260508170903 23 113 8.0 12.9 0.00 0.00 0.00 50 1011.1
20260508170404 23 89 3.2 14.5 0.00 0.00 0.00 49 1011.3
20260508165904 23 122 6.4 14.5 0.00 0.00 0.00 50 1011.5
20260508165404 23 99 8.0 12.9 0.00 0.00 0.00 50 1011.7
20260508164904 23 111 9.7 16.1 0.00 0.00 0.00 50 1011.8
20260508164404 22 99 4.8 12.9 0.00 0.00 0.00 49 1011.8
20260508163904 22 102 4.8 14.5 0.00 0.00 0.00 50 1011.9
20260508163404 22 117 9.7 16.1 0.00 0.00 0.00 50 1012.0
20260508162904 22 118 9.7 19.3 0.00 0.00 0.00 50 1012.1
20260508162404 22 109 8.0 19.3 0.00 0.00 0.00 51 1012.2
20260508161904 22 168 9.7 19.3 0.00 0.00 0.00 50 1012.3
20260508160904 22 130 8.0 16.1 0.00 0.00 0.00 51 1012.2
20260508160404 21 134 6.4 14.5 0.00 0.00 0.00 52 1012.3
20260508153403 21 150 9.7 14.5 0.00 0.00 0.00 51 1012.8
20260508152904 21 157 9.7 16.1 0.00 0.00 0.00 51 1012.8
20260508152404 21 140 8.0 14.5 0.00 0.00 0.00 51 1012.8
20260508151904 21 145 4.8 16.1 0.00 0.00 0.00 51 1012.8
20260508151404 21 158 9.7 19.3 0.00 0.00 0.00 50 1012.8
20260508150904 21 143 6.4 12.9 0.00 0.00 0.00 51 1012.8
20260508150404 21 143 8.0 16.1 0.00 0.00 0.00 52 1012.8
20260508145905 21 121 8.0 14.5 0.00 0.00 0.00 51 1012.8
20260508145403 21 129 6.4 14.5 0.00 0.00 0.00 51 1012.7
20260508144904 21 135 9.7 14.5 0.00 0.00 0.00 51 1012.6
20260508144404 21 137 4.8 14.5 0.00 0.00 0.00 51 1012.5
20260508142904 20 108 3.2 19.3 0.00 0.00 0.00 52 1012.7
20260508141904 20 108 8.0 16.1 0.00 0.00 0.00 54 1012.9
20260508140904 19 121 9.7 16.1 0.00 0.00 0.00 55 1013.0
20260508140404 19 105 6.4 16.1 0.00 0.00 0.00 54 1013.1
20260508135904 18 130 8.0 14.5 0.00 0.00 0.00 56 1013.2
20260508135404 18 114 9.7 19.3 0.00 0.00 0.00 57 1013.0
20260508134904 18 101 9.7 16.1 0.00 0.00 0.00 57 1013.0
20260508133904 17 110 6.4 16.1 0.00 0.00 0.00 58 1013.1
20260508133404 17 102 8.0 12.9 0.00 0.00 0.00 59 1013.0
20260508132904 17 103 4.8 9.7 0.00 0.00 0.00 60 1013.0
20260508132404 17 90 6.4 12.9 0.00 0.00 0.00 62 1013.1
20260508131904 16 125 4.8 9.7 0.00 0.00 0.00 62 1013.2
20260508131404 16 76 3.2 4.8 0.00 0.00 0.00 64 1013.3
20260508130904 16 63 4.8 8.0 0.00 0.00 0.00 65 1013.4
20260508130403 16 69 3.2 4.8 0.00 0.00 0.00 65 1013.4
20260508125904 15 67 1.6 4.8 0.00 0.00 0.00 65 1013.4
20260508125404 15 67 3.2 4.8 0.00 0.00 0.00 65 1013.4
20260508124904 15 71 1.6 4.8 0.00 0.00 0.00 65 1013.2
20260508124404 15 71 1.6 4.8 0.00 0.00 0.00 65 1013.2
20260508123903 15 72 3.2 4.8 0.00 0.00 0.00 65 1013.1
20260508123404 15 76 3.2 4.8 0.00 0.00 0.00 65 1012.9
20260508122904 15 76 3.2 4.8 0.00 0.00 0.00 66 1013.0
20260508122404 15 76 1.6 3.2 0.00 0.00 0.00 66 1013.1
20260508121903 15 76 0.0 4.8 0.00 0.00 0.00 66 1013.3
20260508121404 15 76 3.2 4.8 0.00 0.00 0.00 66 1013.3
20260508120903 15 76 1.6 3.2 0.00 0.00 0.00 66 1013.3
20260508120404 15 76 1.6 4.8 0.00 0.00 0.00 66 1013.2
20260508115904 15 76 1.6 4.8 0.00 0.00 0.00 66 1013.3
20260508115404 15 76 0.0 1.6 0.00 0.00 0.00 66 1013.4
20260508114904 15 76 1.6 4.8 0.00 0.00 0.00 65 1013.4
20260508114404 15 76 1.6 3.2 0.00 0.00 0.00 66 1013.4
20260508113904 15 76 1.6 4.8 0.00 0.00 0.00 66 1013.5
20260508112904 15 319 0.0 0.0 0.00 0.00 0.00 65 1013.8
20260508112404 15 319 1.6 4.8 0.00 0.00 0.00 65 1013.9
20260508111904 15 319 3.2 8.0 0.00 0.00 0.00 65 1014.1
20260508110404 15 230 1.6 3.2 0.00 0.00 0.00 65 1013.5
20260508105403 15 227 4.8 4.8 0.00 0.00 0.00 65 1013.2
20260508104904 15 120 0.0 3.2 0.00 0.00 0.00 65 1012.8
20260508104404 15 120 0.0 4.8 0.00 0.00 0.00 65 1012.6
20260508103904 15 119 3.2 4.8 0.00 0.00 0.00 65 1012.3
20260508103404 15 122 4.8 4.8 0.00 0.00 0.00 65 1012.2
20260508102903 15 121 3.2 4.8 0.00 0.00 0.00 65 1012.3
20260508102404 15 121 3.2 4.8 0.00 0.00 0.00 65 1012.3
20260508101904 15 121 1.6 3.2 0.00 0.00 0.00 65 1012.3
20260508101404 15 121 1.6 3.2 0.00 0.00 0.00 65 1012.6
20260508100904 15 121 1.6 4.8 0.00 0.00 0.00 65 1012.5
20260508095904 15 121 1.6 3.2 0.00 0.00 0.00 65 1012.5
20260508094904 15 121 0.0 4.8 0.00 0.00 0.00 65 1012.5
20260508094403 15 121 1.6 4.8 0.00 0.00 0.00 65 1012.3
20260508093904 15 121 0.0 3.2 0.00 0.00 0.00 65 1012.6
20260508093404 15 121 3.2 4.8 0.00 0.00 0.00 65 1012.5
20260508092904 15 121 1.6 3.2 0.00 0.00 0.00 65 1012.5
20260508092403 15 121 3.2 4.8 0.00 0.00 0.00 65 1012.5
20260508091903 15 121 1.6 8.0 0.00 0.00 0.00 65 1012.6
20260508091404 15 133 3.2 8.0 0.00 0.00 0.00 65 1012.4
20260508090904 15 113 4.8 9.7 0.00 0.00 0.00 65 1012.4